Terminal Aerodrome Forecast
Issued by NWS North Platte, NE

Home | Current Version | Previous Version | Text Only | Print | Product List | Glossary On
Versions: 1 2 3 4 5 6 7 8 9 10 11 12 13 14 15 16 17 18 19
224
FTUS43 KLBF 231720
TAFLBF
TAF
KLBF 231720Z 2318/2418 06016G24KT P6SM OVC007
      TEMPO 2318/2321 5SM -SN BR OVC007
     FM232100 04017G25KT 2SM -SN BKN005 OVC007
      TEMPO 2321/2324 1 1/2SM -SN OVC005
     FM240000 02016G24KT 1 1/2SM -SN OVC007
      TEMPO 2400/2404 1SM -SN BLSN OVC005
     FM240600 35015G24KT 1 1/2SM -SN OVC010=

USA.gov is the U.S. government's official web portal to all federal, state and local government web resources and services.